[[{"header":{"parameterUnit":"m.s-1","parameterCategory":1,"la1":30.2991,"la2":30.254,"lo1":-89.0895,"lo2":-89.0444,"dy":0.0017,"dx":0.0017,"nx":28,"ny":28,"refTime":"2023-07-21T09:00:00:Z","depth":0,"parameterNumber":2,"parameterNumberName":"U-component_of_WINDS"},"data":[0,0,0,0,0,0,0,0,0,0,0,0,0,0,0,0,0,0,0,0,0,0,0,0,0,0,0,0,0,0,0,0,0,0,0,0,0,0,0,0,0,0,0,0,0,0,0,0,0,0,0,0,0,0,0,0,0,0,1.867,1.8672,0,1.8774,1.8776,1.8777,1.8794,1.8793,1.8792,1.8791,1.8904,1.8907,1.8911,0,0,0,0,0,0,0,0,0,0,0,0,0,1.8493,1.8497,1.867,1.8672,1.8673,1.8774,1.8776,1.8777,1.8794,1.8793,1.8792,1.8791,1.8902,1.8907,1.8912,0,0,0,0,0,0,0,0,0,0,0,0,0,1.8581,1.8498,1.867,1.8694,1.8697,1.8774,1.8776,1.8777,1.8794,1.8793,1.8792,1.879,1.8901,1.8907,1.8912,1.8975,0,0,1.893,1.8932,0,0,0,0,0,0,0,0,1.8576,1.8588,1.8689,1.8692,1.8696,1.877,1.8754,1.8844,1.8795,1.8758,1.8791,1.879,1.8861,1.887,1.8892,1.898,1.8985,1.893,1.8934,1.8936,1.8938,0,0,0,0,0,0,0,1.857,1.8583,1.8712,1.869,1.8695,1.8701,1.8712,1.8771,1.8816,1.8761,1.8762,1.8774,1.8862,1.8887,1.8895,1.8987,1.893,1.8935,1.8939,1.8941,1.9134,1.9136,0,0,0,0,0,0,1.8559,1.8578,1.8708,1.8715,1.8631,1.8705,1.8718,1.8747,1.8815,1.8824,1.8775,1.8774,1.8877,1.8888,1.8899,1.8979,1.8936,1.8942,1.8945,1.9133,1.9135,1.9137,0,0,0,0,0,0,1.8555,1.857,1.8704,1.8647,1.8664,1.871,1.8743,1.875,1.8775,1.8826,1.8834,1.8791,1.8877,1.8891,1.8956,1.8983,1.8944,1.8949,1.9131,1.9133,1.9136,1.9138,0,0,0,0,0,0,1.855,1.8569,1.8591,1.8647,1.8667,1.8758,1.8745,1.8753,1.8784,1.8784,1.8843,1.8852,1.8877,1.8947,1.8962,1.899,1.8954,1.9129,1.9132,1.9135,1.9136,1.914,1.9144,0,0,0,0,0,1.8544,1.8589,1.8593,1.8608,1.8696,1.8759,1.8771,1.8797,1.8786,1.881,1.8843,1.885,1.8977,1.8954,1.897,1.9001,1.9127,1.9131,1.9135,1.9134,1.9139,1.9144,0,0,0,0,0,0,1.8537,1.8596,1.8601,1.8665,1.8707,1.8762,1.8793,1.8801,1.8848,1.8847,1.8879,1.8892,1.8956,1.8985,1.8958,1.9067,1.9052,1.9059,1.9045,1.9051,1.9055,1.9048,1.8959,0,0,0,0,0,1.8542,1.8586,1.8637,1.8689,1.8709,1.8747,1.8776,1.8792,1.8837,1.8855,1.8893,1.8938,1.8989,1.9021,1.907,1.9139,1.9154,1.9169,1.9173,1.9176,1.9182,1.9224,1.9231,1.9149,1.9149,1.9149,0,0,1.8555,1.8593,1.8619,1.8688,1.8722,1.8769,1.8762,1.8812,1.8848,1.8863,1.8927,1.8957,1.9009,1.9077,1.9109,1.9103,1.9208,1.9181,1.9183,1.9188,1.9228,1.9236,1.9243,1.9152,1.9151,1.9151,0,0,1.8602,1.8634,1.8682,1.8716,1.8767,1.8793,1.8804,1.8858,1.8878,1.8942,1.8955,1.9,1.9085,1.9123,1.9153,1.9216,1.9225,1.9231,1.9254,1.9294,1.93,1.9306,1.9331,1.9339,1.9237,1.9237,1.9237,0,1.8612,1.8681,1.8706,1.8755,1.8787,1.8801,1.8851,1.8884,1.8949,1.8972,1.8963,1.9072,1.9108,1.9186,1.9202,1.9225,1.9241,1.9225,1.9297,1.9303,1.9309,1.9333,1.9342,1.9238,1.9238,1.9238,1.9238,0,1.8692,1.874,1.8773,1.8834,1.8869,1.8919,1.8953,1.8986,1.8999,1.9026,1.9093,1.9137,1.9196,1.9216,1.923,1.9297,1.9292,1.929,1.9276,1.9317,1.934,1.9349,1.9239,1.9238,1.9238,1.9238,0,0,1.8738,1.8813,1.8825,1.8854,1.8911,1.895,1.9002,1.9058,1.9086,1.9131,1.9177,1.9249,1.9248,1.9282,1.9301,1.9336,1.9386,1.933,1.9332,1.9341,1.9465,1.9467,1.9477,1.9391,1.9393,1.9395,1.9461,0,1.8794,1.8884,1.8908,1.8986,1.9032,1.9047,1.9092,1.9134,1.9161,1.9206,1.9237,1.9288,1.9281,1.9303,1.9337,1.9372,1.9412,1.9368,1.9437,1.9439,1.9425,1.9489,1.9492,1.9552,1.947,1.9472,1.9473,0,1.8871,1.8916,1.8998,1.9051,1.9072,1.9112,1.9166,1.9208,1.9257,1.9274,1.9313,1.9329,1.9386,1.9367,1.9448,1.9417,1.9447,1.9469,1.9472,1.9481,1.9459,1.9502,1.9572,1.9582,1.9487,1.9486,1.9485,0,1.8899,1.8981,1.9041,1.9065,1.9128,1.9156,1.9184,1.9231,1.9264,1.9312,1.9335,1.9389,1.942,1.9463,1.9494,1.9478,1.9573,1.9557,1.9591,1.9591,1.9612,1.961,1.969,1.9628,1.9628,1.9627,1.9627,0,1.896,1.901,1.9054,1.9091,1.9148,1.9177,1.9233,1.9262,1.9304,1.9349,1.9366,1.9408,1.9445,1.9493,1.9518,1.9582,1.9596,1.9613,1.962,1.9613,1.9611,1.9634,1.9631,1.963,1.9629,1.9629,1.9628,0,1.9002,1.9033,1.91,1.9154,1.9169,1.9209,1.9257,1.9295,1.9322,1.9379,1.9394,1.9438,1.9495,1.953,1.9603,1.962,1.9691,1.9695,1.9674,1.9678,1.9711,1.9708,1.981,1.9825,1.9751,1.9752,1.9752,0,1.9039,1.9078,1.9137,1.9167,1.9195,1.9244,1.9277,1.9307,1.9342,1.9401,1.9432,1.949,1.9538,1.963,1.967,1.9726,1.9733,1.9765,1.9742,1.9734,1.9736,1.9734,1.9739,1.9769,1.977,1.977,1.9771,0,1.9104,1.9117,1.9164,1.9217,1.9256,1.9299,1.9342,1.9367,1.9405,1.9443,1.9501,1.9538,1.9613,1.9671,1.9731,1.9763,1.9774,1.9777,1.9789,1.9783,1.977,1.978,1.9687,1.9775,1.9775,1.9774,1.9774,1.9774,1.9146,1.9182,1.9229,1.9281,1.9316,1.9357,1.9395,1.9427,1.9476,1.9537,1.9553,1.9614,1.9664,1.9746,1.9779,1.9829,1.9824,1.984,1.9845,1.9849,1.9851,1.976,1.984,1.984,1.984,1.984,1.984,0,1.9213,1.9244,1.9291,1.9351,1.9392,1.9397,1.9446,1.9481,1.9534,1.9579,1.9626,1.9694,1.9751,1.9795,1.9854,1.9886,1.9893,1.9901,1.99,1.9908,1.985,1.9835,1.9894,1.9894,1.9894,1.9894,1.9894,1.9894,1.9252,1.9314,1.9333,1.9414,1.9445,1.9504,1.9532,1.957,1.9606,1.9681,1.9727,1.9755,1.9801,1.9863,1.9917,1.9929,1.9951,1.9958,1.9971,1.9917,1.9911,1.9906,1.9892,1.9962,1.9962,2.0025,2.0025,2.0026]},{"header":{"parameterUnit":"m.s-1","parameterCategory":1,"la1":30.2991,"la2":30.254,"lo1":-89.0895,"lo2":-89.0444,"dy":0.0017,"dx":0.0017,"nx":28,"ny":28,"refTime":"2023-07-21T09:00:00:Z","depth":0,"parameterNumber":3,"parameterNumberName":"V-component_of_WINDS"},"data":[0,0,0,0,0,0,0,0,0,0,0,0,0,0,0,0,0,0,0,0,0,0,0,0,0,0,0,0,0,0,0,0,0,0,0,0,0,0,0,0,0,0,0,0,0,0,0,0,0,0,0,0,0,0,0,0,0,0,1.2663,1.2664,0,1.2729,1.273,1.2731,1.2714,1.2713,1.2711,1.271,1.2777,1.278,1.2783,0,0,0,0,0,0,0,0,0,0,0,0,0,1.2519,1.2521,1.2663,1.2664,1.2665,1.2729,1.273,1.2731,1.2714,1.2713,1.2711,1.271,1.2776,1.278,1.2783,0,0,0,0,0,0,0,0,0,0,0,0,0,1.2583,1.2522,1.2663,1.2664,1.2665,1.2729,1.273,1.2731,1.2715,1.2713,1.2711,1.2709,1.2775,1.2779,1.2784,1.285,0,0,1.2797,1.2799,0,0,0,0,0,0,0,0,1.2579,1.2588,1.2663,1.2664,1.2665,1.2711,1.2704,1.2771,1.2715,1.2696,1.271,1.2708,1.2757,1.2763,1.2779,1.2853,1.2856,1.2798,1.28,1.2802,1.2804,0,0,0,0,0,0,0,1.2575,1.2585,1.2689,1.2664,1.2666,1.266,1.2667,1.2716,1.2736,1.2697,1.2696,1.2704,1.2757,1.2775,1.2781,1.2857,1.2798,1.2802,1.2804,1.2806,1.2983,1.2985,0,0,0,0,0,0,1.257,1.2582,1.2687,1.2691,1.2617,1.2664,1.2672,1.2699,1.2736,1.274,1.2706,1.2703,1.2768,1.2775,1.2783,1.2859,1.2802,1.2807,1.2809,1.2981,1.2983,1.2986,0,0,0,0,0,0,1.2567,1.2579,1.2685,1.2636,1.2649,1.2669,1.2699,1.2701,1.2719,1.2742,1.2745,1.2721,1.2767,1.2777,1.2832,1.2861,1.2809,1.2813,1.2979,1.2982,1.2984,1.3014,0,0,0,0,0,0,1.2563,1.2578,1.2605,1.2637,1.2652,1.2734,1.2701,1.2704,1.2727,1.2724,1.2757,1.2761,1.2766,1.2826,1.2837,1.2866,1.2816,1.2976,1.298,1.2984,1.3011,1.3018,1.3024,0,0,0,0,0,1.2558,1.2612,1.2607,1.262,1.2686,1.2736,1.2744,1.275,1.2729,1.2755,1.2769,1.276,1.2857,1.2832,1.2844,1.2875,1.2974,1.2979,1.2983,1.3008,1.3017,1.3024,0,0,0,0,0,0,1.2585,1.2617,1.2611,1.2678,1.2704,1.2733,1.2766,1.276,1.2793,1.2789,1.2794,1.2801,1.2857,1.2872,1.2844,1.2939,1.2912,1.2919,1.2927,1.2935,1.2942,1.2936,1.282,0,0,0,0,0,1.2598,1.2637,1.2663,1.2719,1.2732,1.2747,1.2769,1.277,1.2798,1.2809,1.2828,1.2854,1.289,1.2914,1.2949,1.3013,1.3018,1.3041,1.3047,1.3053,1.3058,1.3088,1.3097,1.3,1.3,1.3,0,0,1.2627,1.2649,1.2674,1.2725,1.2746,1.2783,1.2757,1.28,1.2827,1.2816,1.2868,1.2883,1.2912,1.2971,1.2998,1.2985,1.3086,1.3058,1.3062,1.3065,1.3094,1.3103,1.3111,1.3003,1.3003,1.3002,0,0,1.2698,1.2721,1.2767,1.2788,1.2818,1.2827,1.2838,1.2867,1.2876,1.2929,1.2919,1.2952,1.3015,1.3035,1.3053,1.3126,1.3117,1.3138,1.3172,1.3201,1.3209,1.3215,1.3238,1.3246,1.3144,1.3144,1.3144,0,1.273,1.2788,1.2792,1.2834,1.2855,1.2845,1.2891,1.291,1.2951,1.2965,1.295,1.3026,1.3046,1.3106,1.3123,1.314,1.315,1.3133,1.3207,1.3214,1.322,1.3242,1.325,1.3146,1.3145,1.3145,1.3145,0,1.2823,1.2863,1.2897,1.2934,1.2959,1.3003,1.3012,1.3036,1.3034,1.3043,1.3095,1.3117,1.3154,1.3169,1.3169,1.3229,1.3219,1.3206,1.3179,1.3232,1.3251,1.326,1.3148,1.3148,1.3147,1.3147,0,0,1.2915,1.2951,1.2963,1.2977,1.3009,1.3039,1.308,1.3115,1.3134,1.3162,1.3194,1.3246,1.3232,1.3253,1.3255,1.3281,1.3332,1.3264,1.3264,1.3272,1.3394,1.3401,1.3411,1.3326,1.3328,1.3329,1.339,0,1.2986,1.3058,1.3061,1.3127,1.3161,1.315,1.3186,1.3207,1.3216,1.3246,1.3256,1.329,1.3272,1.3283,1.3309,1.332,1.3356,1.3316,1.3354,1.3355,1.3344,1.3422,1.3431,1.3487,1.3398,1.34,1.3401,0,1.3079,1.3106,1.3175,1.3196,1.3211,1.3243,1.3272,1.3301,1.3324,1.3328,1.3349,1.3346,1.3385,1.3358,1.3411,1.3384,1.3399,1.3407,1.3409,1.3411,1.3379,1.3423,1.3506,1.3513,1.3413,1.3412,1.3412,0,1.3133,1.3188,1.3235,1.3248,1.3276,1.3297,1.331,1.3331,1.335,1.3376,1.3388,1.3418,1.3434,1.3457,1.3461,1.3441,1.3512,1.3486,1.3514,1.3514,1.3528,1.3527,1.3612,1.3543,1.3543,1.3543,1.3543,0,1.321,1.3252,1.3259,1.3287,1.3332,1.3334,1.3377,1.3388,1.3406,1.3435,1.3428,1.3455,1.346,1.3487,1.349,1.3531,1.3539,1.3542,1.3541,1.3541,1.354,1.3549,1.3544,1.3545,1.3545,1.3544,1.3544,0,1.3279,1.3286,1.3335,1.3355,1.3361,1.3393,1.341,1.3436,1.3443,1.3478,1.3487,1.3498,1.3529,1.3535,1.3573,1.3575,1.3622,1.3619,1.3614,1.3612,1.3639,1.3635,1.3731,1.3742,1.3668,1.3669,1.367,0,1.3326,1.3357,1.338,1.3398,1.341,1.3441,1.3459,1.3461,1.348,1.3506,1.3528,1.3558,1.3582,1.3632,1.3643,1.367,1.3667,1.3698,1.3671,1.3667,1.3663,1.3659,1.3661,1.3703,1.3704,1.3704,1.3705,0,1.3408,1.3409,1.3436,1.3462,1.3484,1.3506,1.3526,1.3541,1.3546,1.3567,1.3598,1.3617,1.3653,1.3682,1.3709,1.372,1.3712,1.3713,1.3721,1.3719,1.3713,1.3712,1.3624,1.3711,1.371,1.371,1.371,1.3709,1.3465,1.349,1.3508,1.3537,1.3552,1.357,1.3594,1.3602,1.3628,1.3657,1.3657,1.369,1.3708,1.3742,1.3755,1.3779,1.3769,1.3781,1.3783,1.3785,1.3786,1.3711,1.3785,1.3785,1.3785,1.3784,1.3784,0,1.3543,1.3554,1.358,1.3607,1.3629,1.3619,1.364,1.3658,1.3687,1.3705,1.3727,1.376,1.3787,1.3799,1.3824,1.3842,1.3838,1.3848,1.3845,1.3847,1.3796,1.3785,1.385,1.385,1.385,1.385,1.385,1.385,1.3587,1.3626,1.3629,1.3674,1.3685,1.3716,1.3728,1.3743,1.3756,1.3794,1.3815,1.3822,1.3836,1.3862,1.3885,1.3888,1.3896,1.3907,1.3907,1.3858,1.3852,1.3845,1.3835,1.3909,1.3909,1.3956,1.3957,1.3957]}]]